Regional Weather Roundup
Issued by NWS

Home | Current Version | Previous Version | Graphics & Text | Print | Product List | Glossary On
Versions: 1 2 3 4 5 6 7 8 9 10 11 12 13 14 15 16 17 18 19 20 21 22 23 24 25 26 27 28 29 30 31 32 33 34 35 36 37 38 39 40 41 42 43 44 45 46 47 48 49 50
000
ASUS43 KBIS 240010
RWRND

NORTH DAKOTA REGIONAL WEATHER ROUNDUP
NATIONAL WEATHER SERVICE BISMARCK ND
700 PM CDT SAT SEP 23 2017

NOTE: "FAIR" INDICATES FEW OR NO CLOUDS BELOW 12,000 FEET WITH NO
SIGNIFICANT WEATHER AND/OR OBSTRUCTIONS TO VISIBILITY.


NDZ001>003-009>011-017-240100-
NORTHWEST NORTH DAKOTA

CITY           SKY/WX    TMP DP  RH WIND       PRES   REMARKS
WILLISTON      LGT RAIN  49  42  77 N6        30.12S
6HR MIN TEMP:  49; 6HR MAX TEMP:  53; 6HR PCP:  0.01;

MINOT          CLOUDY    53  43  68 N7        30.10S
MINOT AFB      CLOUDY    52  41  66 N7        30.09S
$$

NDZ018>021-031>035-040>046-240100-
SOUTHWEST NORTH DAKOTA

CITY           SKY/WX    TMP DP  RH WIND       PRES   REMARKS
BISMARCK       CLOUDY    56  45  66 N13       30.03F
6HR MIN TEMP:  53; 6HR MAX TEMP:  59;

DICKINSON      RAIN      45  44  97 N9        30.08S FOG
GARRISON         N/A     50  44  80 N6        30.09F
6HR MIN TEMP:  50; 6HR MAX TEMP:  53; 6HR PCP:  0.01;

HETTINGER ARPT LGT RAIN  45  43  93 NE9       30.09R FOG
$$

NDZ004>008-012>016-024-026-027-054-240100-
NORTHEAST NORTH DAKOTA

CITY           SKY/WX    TMP DP  RH WIND       PRES   REMARKS
GRAND FORKS    CLOUDY    60  50  69 N10       30.05R
GRND FRKS AFB  CLOUDY    58  48  68 N9        30.07R
DEVILS LAKE    CLOUDY    53  45  74 N15       30.10S
$$

NDZ022-023-025-028>030-036>039-047>053-240100-
SOUTHEAST NORTH DAKOTA

CITY           SKY/WX    TMP DP  RH WIND       PRES   REMARKS
FARGO          CLOUDY    59  51  75 N12       30.01S
6HR MIN TEMP:  56; 6HR MAX TEMP:  62;

JAMESTOWN      CLOUDY    57  48  72 NE9       30.03S
$$





USA.gov is the U.S. government's official web portal to all federal, state and local government web resources and services.